Bangor, ME

3:21 PM EST on December 05, 2019 (GMT -0500)
Bangor International

Weather History for KBGR - October, 2019

Change the Weather History Date:

Tuesday, October 8, 2019

  Actual Average Record
Temperature  
Mean Temperature 53 °F 50 °F  
Max Temperature 65 °F 61 °F 80 °F (2011)
Min Temperature 41 °F 39 °F 23 °F (1938)
Degree Days  
Heating Degree Days 12 15  
Month to date heating degree days 120 110  
Since 1 July heating degree days 334 382  
Cooling Degree Days 0 0  
Month to date cooling degree days 0 0  
Year to date cooling degree days 336 317  
Growing Degree Days 4 (Base 50)    
Moisture  
Dew Point 49 °F    
Average Humidity 72    
Maximum Humidity 100    
Minimum Humidity 43    
Precipitation  
Precipitation 0.03 in 0.13 in 3.98 in (2005)
Month to date precipitation 1.48 1.11  
Year to date precipitation 40.50 31.19  
Snow  
Snow 0.00 in 0.00 in 0.00 in (2002)
Month to date snowfall 0.0 0.0  
Since 1 July snowfall 0.0 0.0  
Since 1 September snowfall 0.0 0.0  
Snow Depth 0.00 in    
Sea Level Pressure  
Sea Level Pressure 30.23 in    
Wind  
Wind Speed 5 mph (West)    
Max Wind Speed 21 mph    
Max Gust Speed 24 mph    
Visibility 9 miles    
Events Fog , Rain    
T = Trace of Precipitation, MM = Missing Value Source: NWS Daily Summary

Daily Weather History Graph

Daily Weather History Graph

Search for Another Location

Airport or City:

Astronomy

Oct. 08, 2019 Rise Set
Actual Time 6:41 AM EDT 6:03 PM EDT
Civil Twilight 6:12 AM EDT 6:32 PM EDT
Nautical Twilight 5:38 AM EDT 7:06 PM EDT
Astronomical Twilight 5:04 AM EDT 7:40 PM EDT
Moon 4:15 PM EDT (10/8) 1:10 AM EDT (10/8)
Length of Visible Light 12h 20m
Length of Day
11h 21m
Waxing Gibbous, 77% of the Moon is Illuminated
Oct 8
Waxing Gibbous
Oct 13
Full
Oct 21
Last Quarter
Oct 27
New
Nov 4
First Quarter

Hourly Weather History & Observations

Time (EDT) Temp. Dew Point Humidity Pressure Visibility Wind Dir Wind Speed Gust Speed Precip Events Conditions
12:07 AM 54.0 °F 53.1 °F 97% 30.13 in 2.0 mi SW 3.5 mph - 0.00 in Rain Light Rain
12:53 AM 54.0 °F 53.1 °F 97% 30.14 in 6.0 mi SSW 5.8 mph - 0.01 in Rain Light Rain
1:09 AM 54.0 °F 53.1 °F 97% 30.15 in 10.0 mi SSW 4.6 mph - 0.00 in Rain Light Rain
1:53 AM 54.0 °F 53.1 °F 97% 30.14 in 10.0 mi South 4.6 mph - 0.00 in   Overcast
2:23 AM 54.0 °F 53.1 °F 97% 30.13 in 3.0 mi South 4.6 mph - 0.02 in Rain Light Rain
2:53 AM 54.0 °F 53.1 °F 97% 30.14 in 3.0 mi SSW 4.6 mph - 0.03 in Rain Light Rain
3:53 AM 54.0 °F 53.1 °F 97% 30.14 in 5.0 mi SSW 4.6 mph - 0.00 in   Overcast
4:53 AM 53.1 °F 53.1 °F 100% 30.15 in 10.0 mi Calm Calm - N/A   Overcast
5:44 AM 53.1 °F 52.0 °F 96% 30.16 in 10.0 mi Calm Calm - N/A   Overcast
5:53 AM 52.0 °F 52.0 °F 100% 30.17 in 10.0 mi Calm Calm - N/A   Overcast
6:25 AM 53.1 °F 52.0 °F 96% 30.18 in 10.0 mi SSW 4.6 mph - N/A   Overcast
6:53 AM 53.1 °F 52.0 °F 96% 30.19 in 10.0 mi SW 3.5 mph - N/A Fog Patches of Fog
8:53 AM 55.9 °F 54.0 °F 93% 30.23 in 10.0 mi West 4.6 mph - N/A Fog Patches of Fog
9:29 AM 57.0 °F 55.0 °F 93% 30.25 in 10.0 mi West 4.6 mph - N/A   Mostly Cloudy
9:53 AM 57.9 °F 53.1 °F 84% 30.25 in 10.0 mi WNW 8.1 mph - N/A   Mostly Cloudy
10:53 AM 59.0 °F 51.1 °F 75% 30.25 in 10.0 mi Variable 6.9 mph - N/A   Mostly Cloudy
11:53 AM 62.1 °F 48.9 °F 62% 30.25 in 10.0 mi WNW 11.5 mph - N/A   Mostly Cloudy
12:53 PM 63.0 °F 45.0 °F 52% 30.24 in 10.0 mi NW 15.0 mph 21.9 mph N/A   Mostly Cloudy
1:53 PM 64.0 °F 45.0 °F 50% 30.25 in 10.0 mi NW 13.8 mph - N/A   Mostly Cloudy
2:53 PM 64.9 °F 44.1 °F 47% 30.24 in 10.0 mi North 17.3 mph - N/A   Mostly Cloudy
3:53 PM 64.0 °F 41.0 °F 43% 30.25 in 10.0 mi North 11.5 mph - N/A   Mostly Cloudy
4:53 PM 61.0 °F 44.1 °F 54% 30.26 in 10.0 mi NW 4.6 mph - N/A   Mostly Cloudy
5:53 PM 55.0 °F 45.0 °F 69% 30.27 in 10.0 mi NW 3.5 mph - N/A   Mostly Cloudy
6:53 PM 54.0 °F 43.0 °F 66% 30.29 in 10.0 mi NW 3.5 mph - N/A   Mostly Cloudy
7:53 PM 50.0 °F 43.0 °F 77% 30.31 in 10.0 mi Calm Calm - N/A   Mostly Cloudy
8:53 PM 48.0 °F 45.0 °F 89% 30.33 in 10.0 mi Calm Calm - N/A   Overcast
9:53 PM 46.0 °F 44.1 °F 93% 30.34 in 10.0 mi Calm Calm - N/A   Mostly Cloudy
10:53 PM 45.0 °F 43.0 °F 93% 30.35 in 10.0 mi Calm Calm - N/A   Scattered Clouds
11:53 PM 42.1 °F 41.0 °F 96% 30.37 in 10.0 mi Calm Calm - N/A   Scattered Clouds